Location: Forst
(46.9333°N, 15.4333°E)
Time: 20:37:08
(UTC+00:00)

SL-23 DEB - Pass Details

Date: 01 December 2020
Orbit: 425 x 3627 km, 51.4° (Epoch: 27 January)

Event Time Altitude Azimuth Distance (km) Brightness Sun altitude
Rises 16:44:24 0° 235° (SW) 2,474 8.6 -15.3°
Reaches altitude 10° 16:46:10 10° 233° (SW) 1,712 7.4 -15.6°
Maximum altitude 16:49:48 72° 148° (SSE) 683 4.1 -16.2°
Enters shadow 16:52:35 27° 70° (ENE) 1,483 5.4 -16.7°
